Home > Weather > Paradise > Past weeks

Flag for U.S.A. Weather for the Past 2 Weeks in Paradise, Nevada, U.S.A.

Now
62 °F

Clear.


Feels Like: 62 °F
Forecast: 43 / 74 °F
Wind: 6 mph from Southwest

Location: McCarran International Airport

Current Time: Feb 13, 2016 at 8:54:41 PM

Latest Report: Feb 13, 2016 at 7:56 PM


Visibility: 10 mi

Pressure: 30.03 "Hg (27.84 "Hg at 643m altitude)

Humidity: 22%

Dew point: 23 °F

Location of ParadiseLocation

Historic Weather in Paradise — Graph

°F

Paradise Temperature Yesterday

Maximum temperature yesterday: 74 °F (at 2:56 PM)
Minimum temperature yesterday: 48 °F (at 2:56 AM)
Average temperature yesterday: 59 °F

High & Low Weather Summary for the Past Weeks

 TemperatureHumidityPressure
High75 °F (Feb 13, 2:56 PM)93% (Jan 31, 7:56 PM)30.51 "Hg (Jan 31, 7:56 PM)
Low30 °F (Feb 3, 6:56 AM)13% (Feb 11, 2:56 PM)29.32 "Hg (Jan 31, 4:56 PM)
Average52 °F35%30.15 "Hg
* Reported Jan 29 6:56 PM — Feb 13 6:56 PM, Paradise, Weather by CustomWeather, © 2016

Note: Actual official high and low records may vary slightly from our data, if they occured in-between our weather recording intervals... More about our weather records

Advertising

Paradise Weather History for the Previous 24 Hours

 ConditionsComfort  
Time TempWeatherWind HumidityBarometerVisibility
6:56 PM
Sat, Feb 13
68 °FPassing clouds.3 mph18%30.03 "Hg10 mi
5:56 PM70 °FPassing clouds.No wind18%30.03 "Hg10 mi
4:56 PM73 °FPassing clouds.No wind15%30.04 "Hg10 mi
3:56 PM75 °FScattered clouds.3 mph13%30.03 "Hg10 mi
2:56 PM75 °FScattered clouds.No wind13%30.03 "Hg10 mi
1:56 PM74 °FScattered clouds.5 mph14%30.02 "Hg10 mi
12:56 PM71 °FPartly sunny.No wind16%30.05 "Hg10 mi
11:56 AM69 °FPartly sunny.3 mph17%30.09 "Hg10 mi
10:56 AM66 °FScattered clouds.No wind19%30.12 "Hg10 mi
9:56 AM61 °FScattered clouds.No wind23%30.13 "Hg10 mi
8:56 AM59 °FPassing clouds.5 mph25%30.14 "Hg10 mi
7:56 AM53 °FPassing clouds.3 mph34%30.13 "Hg10 mi
6:56 AM48 °FPassing clouds.5 mph39%30.12 "Hg10 mi
5:56 AM47 °FPassing clouds.3 mph41%30.11 "Hg10 mi
4:56 AM48 °FPassing clouds.3 mph36%30.09 "Hg10 mi
3:56 AM49 °FPassing clouds.6 mph36%30.08 "Hg10 mi
2:56 AM49 °FPassing clouds.3 mph38%30.07 "Hg10 mi
1:56 AM51 °FPassing clouds.3 mph32%30.08 "Hg10 mi
12:56 AM53 °FPassing clouds.3 mph31%30.08 "Hg10 mi
11:56 PM
Fri, Feb 12
53 °FPassing clouds.6 mph31%30.09 "Hg10 mi
10:56 PM54 °FPassing clouds.5 mph31%30.09 "Hg10 mi
9:56 PM57 °FPassing clouds.No wind28%30.10 "Hg10 mi
8:56 PM59 °FPassing clouds.No wind27%30.10 "Hg10 mi
Weather by CustomWeather, © 2016

See weather overviewHow to use our weather pages